Overview Statistics Trail Chart Weather Telemetry Raw packets
 

This is the latest recevied weather packets stored in our database for station/object WX5RP. If no packets are shown the sender has not sent any weather packets the latest 10 day(s).

<< 24 25 26 27 28 29 30 >>
Time Temp. Humidity Pressure Rain* Wind** Luminosity Snow
1777633518 0° C 69% 1019.4 hPa 0 mm - 0 W/m² -
1777632917 0° C 70% 1019 hPa 0 mm - 0 W/m² -
1777632317 0.56° C 69% 1019.3 hPa 0 mm - 0 W/m² -
1777631717 0.56° C 68% 1018.9 hPa 0 mm - 0 W/m² -
1777631117 0.56° C 67% 1018.9 hPa 0 mm - 0 W/m² -
1777630517 0.56° C 68% 1018.9 hPa 0 mm - 0 W/m² -
1777629917 0.56° C 67% 1019.4 hPa 0 mm - 0 W/m² -
1777629317 1.67° C 64% 1019.4 hPa 0 mm - 0 W/m² -
1777628716 1.67° C 63% 1019.4 hPa 0 mm - 0 W/m² -
1777628117 1.67° C 64% 1019.1 hPa 0 mm - 0 W/m² -
1777627516 1.67° C 64% 1019.1 hPa 0 mm - 0 W/m² -
1777626916 1.67° C 65% 1019.1 hPa 0 mm - 0 W/m² -
1777626317 2.22° C 64% 1019.5 hPa 0 mm - 0 W/m² -
1777625717 2.22° C 66% 1019.6 hPa 0 mm - 0 W/m² -
1777625117 1.67° C 68% 1019.6 hPa 0 mm - 0 W/m² -
1777624516 2.22° C 68% 1019.4 hPa 0 mm - 0 W/m² -
1777623916 2.78° C 66% 1019.1 hPa 0 mm - 0 W/m² -
1777623316 3.33° C 64% 1019.1 hPa 0 mm - 0 W/m² -
1777622716 3.33° C 63% 1019.7 hPa 0 mm - 0 W/m² -
1777622116 3.89° C 62% 1019.2 hPa 0 mm - 0 W/m² -
1777621516 4.44° C 61% 1019.5 hPa 0 mm - 0 W/m² -
1777620917 4.44° C 59% 1019.1 hPa 0 mm - 0 W/m² -
1777620317 4.44° C 59% 1019.3 hPa 0 mm - 0 W/m² -
1777619716 3.89° C 61% 1019 hPa 0 mm - 0 W/m² -
1777619116 3.89° C 61% 1018.7 hPa 0 mm - 0 W/m² -

* Rain latest hour (hover to see other rain measurements)
** Current wind speed in m/s (hover to see current wind gust speed)